Location: Tucson
(32.2217°N, 110.9265°W)
Time: 19:11:20
(UTC-07:00)

A-11 Canister half - Pass Details

Date: 29 October 2021
Orbit: 1516 x 1684 km, 47.2° (Epoch: 28 November)

Event Time Altitude Azimuth Distance (km) Brightness Sun altitude
Rises 21:54:21 0° 306° (NW) 4,888 12.2 -54.5°
Reaches altitude 10° 21:57:43 10° 311° (NW) 3,880 11.5 -55.2°
Enters shadow 22:00:56 23° 321° (NW) 2,980 10.7 -55.8°
